• Join FlightAware (Why Join?)
  • Login
  • US Flag 
09:59AM EDT


 

Airport Tracker/Info


-or-


 

Live Flight TrackerFlight Track Log ✈ SWA286 ✈ 11-Apr-2013 ✈ KISP - KBWI

Flight Track Log - Related Links

Times and Time Zones

All times are in EDT time to prevent confusion due to time zone crossing. See the SWA286 flight status page for this flight to view local times or setup timezone preferences in your user account.

Time Position Orientation Groundspeed Altitude Reporting Facility
EDT Latitude Longitude Course Direction KTS MPH feet Rate Location/Type
03:12PM 40.8167 -73.0500 221° Southwest 187 215 3,300  Level New York TRACON
03:14PM 40.7783 -72.8211 102° East 279 321 10,100 2,820 Climbing Boston Center
03:15PM 40.7456 -72.6947 109° East 323 372 12,900 3,120 Climbing Boston Center
03:16PM 40.6581 -72.6536 160° South 331 381 16,500 3,180 Climbing Boston Center
03:17PM 40.7284 -72.5389 221° Southwest  Level FlightAware Approximate
03:17PM 40.5953 -72.7025 211° Southwest 280 322 19,400  Level Boston Center
03:18PM 40.4972 -72.8003 217° Southwest 308 354 23,000 3,540 Climbing Boston Center
03:19PM 40.4219 -72.8900 222° Southwest 345 397 26,400 1,500 Climbing Boston Center
03:21PM 40.2458 -73.0939 221° Southwest 386 444 28,000 480 Climbing Washington Center
03:22PM 40.1581 -73.1892 220° Southwest 391 450 28,000  Level Washington Center
03:23PM 40.0725 -73.2869 221° Southwest 405 466 28,000  Level Washington Center
03:24PM 39.9847 -73.3847 220° Southwest 411 473 28,000  Level Washington Center
03:25PM 39.8889 -73.4906 220° Southwest 411 473 28,000  Level Washington Center
03:26PM 39.8031 -73.5875 221° Southwest 417 480 28,000  Level Washington Center
03:27PM 39.7253 -73.6733 220° Southwest 417 480 28,000  Level Washington Center
03:28PM 39.6350 -73.7728 220° Southwest 422 486 28,000  Level Washington Center
03:29PM 39.5469 -73.8692 220° Southwest 422 486 28,000  Level Washington Center
03:30PM 39.4756 -73.9839 231° Southwest 422 486 28,000  Level Washington Center
03:31PM 39.4125 -74.1061 236° Southwest 417 480 28,000  Level Washington Center
03:32PM 39.3472 -74.2283 235° Southwest 417 480 28,000 -60 Level Washington Center
03:33PM 39.2778 -74.3503 234° Southwest 422 486 27,900 -600 Descending Washington Center
03:34PM 39.2164 -74.4692 236° Southwest 422 486 26,800 -1,080 Descending Washington Center
03:35PM 39.1569 -74.5772 235° Southwest 403 464 25,800 -1,140 Descending Washington Center
03:36PM 39.0953 -74.6903 235° Southwest 396 456 24,600 -1,380 Descending Washington Center
03:37PM 39.0397 -74.8006 237° Southwest 383 441 23,100 -1,500 Descending Washington Center
03:38PM 38.9822 -74.9028 234° Southwest 372 428 21,600 -1,500 Descending Washington Center
03:39PM 38.9264 -75.0047 235° Southwest 361 415 20,100 -1,560 Descending Washington Center
03:40PM 38.8706 -75.0983 233° Southwest 355 409 18,500 -1,500 Descending Washington Center
03:41PM 38.8189 -75.2000 237° Southwest 350 403 17,100 -1,200 Descending Washington Center
03:42PM 38.8025 -75.3119 259° West 319 367 16,100 -540 Descending Washington Center
03:43PM 38.7964 -75.4239 266° West 319 367 16,100  Level Washington Center
03:44PM 38.7903 -75.5383 266° West 319 367 16,100  Level Washington Center
03:45PM 38.7819 -75.6556 265° West 325 374 16,100  Level Washington Center
03:46PM 38.7756 -75.7647 266° West 325 374 16,100 -1,080 Level Washington Center
03:47PM 38.7692 -75.8739 266° West 319 367 14,000 -1,740 Descending Washington Center
03:48PM 38.7606 -75.9831 264° West 319 367 12,700 -1,500 Descending Washington Center
03:49PM 38.7539 -76.0894 265° West 314 361 11,100 -900 Descending Washington Center
03:50PM 38.7617 -76.1906 276° West 300 345 10,900 -900 Descending Washington Center
03:51PM 38.8050 -76.2736 304° West 278 320 9,400 -1,560 Descending Washington Center
03:52PM 38.8525 -76.3567 306° West 278 320 7,800 -1,680 Descending Washington Center
03:53PM 38.8833 -76.4333 297° West 269 310 6,500 -1,560 Descending Potomac TRACON
03:54PM 38.9333 -76.5000 314° West 268 308 5,000 -780 Descending Potomac TRACON
03:55PM 38.9667 -76.5833 297° West 267 307 5,000 -540 Level Potomac TRACON
03:56PM 39.0000 -76.6667 297° West 274 315 4,000 -600 Descending Potomac TRACON
03:57PM 39.0500 -76.7500 308° West 268 308 3,900  Descending Potomac TRACON
03:58PM 39.0833 -76.8333 297° West 269 310 4,000 -240 Climbing Potomac TRACON
03:59PM 39.1333 -76.8500 346° North 250 288 3,500 -660 Descending Potomac TRACON
04:00PM 39.1667 -76.7833 57° Northeast 225 259 2,700 -300 Descending Potomac TRACON
04:01PM 39.1833 -76.7167 72° East 204 235 3,000 180 Climbing Potomac TRACON
04:02PM 39.1833 -76.6500 90° East 240 276 3,100  Climbing Potomac TRACON
04:03PM 39.1167 -76.7000 210° Southwest 251 289 3,000 -240 Descending Potomac TRACON
04:04PM 39.1000 -76.7833 256° West 229 264 2,700 -480 Descending Potomac TRACON
04:05PM 39.1500 -76.8167 333° Northwest 217 250 2,100 -420 Descending Potomac TRACON
04:06PM 39.1833 -76.8000 21° North 177 204 1,900 -480 Descending Potomac TRACON
04:07PM 39.1833 -76.7500 90° East 132 152 1,200 -720 Descending Potomac TRACON
04:08PM 39.1833 -76.7167 90° East 125 144 500 -720 Descending Potomac TRACON